PreDB.eu

music predb - trance, techno, house, hardstyle, hardcore
updated: 2023-01-29 15:36:34
2023-01-29 15:17:38TechnoVA-Techno_2023-(ZYX_83098_2)-3CD-2022-BF
2023-01-29 15:16:00TechnoSinistermind--Cold_Heart-(XR119)-WEB-2023-BABAS
2023-01-29 15:15:38TechnoAndre--Encounter-(TNTS0017)-WEB-2023-BABAS
2023-01-29 15:15:17TechnoManuel_Pi--Loving_Rain-(BET474)-WEB-2023-BABAS
2023-01-29 15:13:55TechnoVA-Peace_Is_Constructed_Not_Fought_For-(OBSCR082)-WEB-2022-BABAS
2023-01-29 15:13:33TechnoThree_Faces_of_Eve--Reasons_To_Remain-(OBSCR084)-WEB-2022-BABAS
2023-01-29 15:13:11TechnoVA-FIRE_SERIES_Vol_01-(OBSCRF01)-WEB-2022-BABAS
2023-01-29 14:14:49Techno858Jeff_Rushin-A_Figment_Of_His_Imagination-WEB-2015-WAV
2023-01-29 14:14:34Techno13123Psyk-Time_Foundation-(MOTECD02D)-WEB-2014-BPM
2023-01-29 14:14:15Techno753Kamikaze_Space_Programme-Ballard-WEB-2015-FALCON
2023-01-29 14:14:00Techno754Skee_Mask--Junt-(ITX05)-WEB-2015-dh_int
2023-01-29 14:13:44Techno950Skee_Mask--Serum-(ITX04)-WEB-2014-SiBERiA
2023-01-29 14:13:29Techno760Bas_Mooy_and_Chris_Finke--Parallel_Series_3-(MOTE029D)-WEB-2012-OMA
2023-01-29 14:10:26Techno14142Adam_X-Creative_Vandalism-SG0123LP-WEB-2023-WAV
2023-01-29 14:02:04Hardstyle625Outer_Mind_-_Daydream-WEB-2023-FMC
2023-01-29 14:00:31Techno1087Ritzi_Lee-Loadbalancer_EP-(R3D068)-WEB-2023-PTC
2023-01-29 14:00:25TechnoA.D--Cosmic_Daze_EP-(MOTTO30)-WEB-2023-BABAS
2023-01-29 13:58:11TechnoDockson--Shadows_EP-(KOT150)-WEB-2023-BABAS
2023-01-29 13:58:07TechnoKi--Iterations-(DDR056)-WEB-2023-BABAS
2023-01-29 13:57:09TechnoDylab--This_Is_Not_An_Exit-(MOTTO30)-WEB-2023-BABAS
2023-01-29 13:30:15Techno752Killernoizes-For_Eva-WEB-2023-wAx
2023-01-29 13:01:15Techno646Eddie_Krystal-Mantra__Eyes-(ATKD116)-WEB-2023-PTC
2023-01-29 12:53:41Techno883VHS-PSM-(IAR323)-WEB-2023-PTC
2023-01-29 12:25:17Techno11113Adece-Crash-(DRSS518)-WEB-2023-PTC
2023-01-29 11:10:59Techno645Dylab-This_Is_Not_An_Exit-(CP136)-WEB-2023-PTC
2023-01-29 11:10:26Techno744Trismus-Pulling_The_Trigger-(TMMLTD032)-WEB-2023-PTC
2023-01-29 11:06:05Techno8164Blake_Strange-Phantom-(JANNOWITZ110)-WEBFLAC-2023-PTC
2023-01-29 11:05:46Techno628Diego_Negretti_And_Mauro_Pera-Accelerate-IAMTRED125-WEB-2022-WAV
2023-01-29 11:03:02Techno859Blake_Strange-Phantom-(JANNOWITZ110)-WEB-2023-AFO
2023-01-29 02:32:47Techno644Sisko_Electrofanatik-Ametista-(TERM218)-WEB-2022-PTC
2023-01-29 01:55:14Techno13150Dyno-Analog_Shot-(DRW268)-WEB-2022-PTC
2023-01-29 01:22:09TechnoIpb_Lei_Tvl--Tethys_EP-(VGNR04)-WEB-2017-BABAS
2023-01-29 01:21:47TechnoMalin_Genie_x_Per_Hammar--Skull_EP-(VLOER01)-WEB-2019-BABAS
2023-01-29 01:16:54TechnoYaleesa_Hall_x_Malin--Lucas-(WNK008)-WEB-2015-BABAS
2023-01-29 01:16:32TechnoWill_x_Ink--Remixed-(WNK006)-WEB-2015-BABAS
2023-01-29 01:16:11TechnoYaleesa_Hall--Perrin-(WNK007)-WEB-2015-BABAS
2023-01-29 01:15:49TechnoMalin--Deorbital_Descent-(WNK005)-WEB-2015-BABAS
2023-01-29 01:15:27TechnoYaleesa_Hall_x_Malin--Carol-(WNK009)-WEB-2016-BABAS
2023-01-29 01:15:06TechnoAndeh_Lang--Susskind-(WNK011)-WEB-2017-BABAS
2023-01-29 01:14:44TechnoYaleesa_Hall--Woodall_LP_Remixes-(WNKLP001RMX)-WEB-2017-BABAS
2023-01-29 01:14:23TechnoMuseum--Silo-(WNK014)-WEB-2018-BABAS
2023-01-29 01:14:01TechnoYaleesa_Hall--Daisy_Barbara_Harriet-(WNK013)-WEB-2018-BABAS
2023-01-28 23:45:21Techno965Gotshell--Storange-(ASD061)-WEB-2022-BABAS
2023-01-28 22:45:42TechnoMike_Storm--Absorbing_Other_Stars-(ASD002)-WEB-2020-BABAS
2023-01-28 22:45:39Techno15120Hugo_Rolan--Futuristic_Technology-(ASD060)-WEB-2022-BABAS
2023-01-28 17:52:43Techno418Piccolo-Acid_Trouble-(TMORNVS016)-SINGLE-WEB-2023-wAx
2023-01-28 17:43:07Techno770Per_Hammar--Returnation_EP-(DH008)-WEB-2023-BABAS
2023-01-28 17:40:35Techno867Danitz-Aborted_Dreams_EP-(KUBE058)-WEB-2023-wAx
2023-01-28 17:29:19TechnoGeorge_Issakidis_x_Speedy_J--Collabs_401-REMASTERED-WEB-2021-BABAS
2023-01-28 17:28:57TechnoSpeedy_J--Pepper__Beam_Me_Up-REMASTERED-WEB-2021-BABAS
2023-01-28 17:27:11TechnoSpeedy_J--Something_for_Your_Mind_(The_Remixes)-REMASTERED-WEB-2021-BABAS
2023-01-28 17:26:49TechnoSpeedy_J--Patterns_Remix__Pannik-REMASTERED-WEB-2021-BABAS
2023-01-28 17:26:27TechnoSpeedy_J--A_Shocking_Hobby-REMASTERED-WEB-2021-BABAS
2023-01-28 17:26:05TechnoSpeedy_J--Evolution-REMASTERED-WEB-2021-BABAS
2023-01-28 17:25:21TechnoGeorge_Issakidis_x_Speedy_J--Collabs_400-REMASTERED-WEB-2021-BABAS
2023-01-28 17:25:00TechnoSpeedy_J--Pull_Over-REMASTERED-WEB-2021-BABAS
2023-01-28 17:24:39TechnoChris_Liebing_x_Speedy_J--Collabs_300-REMASTERED-WEB-2021-BABAS
2023-01-28 17:24:17TechnoSpeedy_J--Intercontinental-REMASTERED-WEB-2021-BABAS
2023-01-28 17:23:56TechnoElectric_Deluxe--Electric_Deluxe-REMASTERED-WEB-2021-BABAS
2023-01-28 17:23:12TechnoTune--Change_The_Beat-REMASTERED-WEB-2021-BABAS
2023-01-28 17:22:49TechnoChris_Liebing_x_Speedy_J--Collabs_301-REMASTERED-WEB-2021-BABAS
2023-01-28 17:21:44TechnoSpeedy_J--Krekc-REMASTERED-WEB-2021-BABAS
2023-01-28 17:21:22TechnoSpeedy_J--Bugmod-REMASTERED-WEB-2021-BABAS
2023-01-28 17:20:53TechnoSpeedy_J--Rise-REMASTERED-WEB-2021-BABAS
2023-01-28 17:20:40TechnoSpeedy_J--Tanga-REMASTERED-WEB-2021-BABAS
2023-01-28 17:20:33TechnoSpeedy_J--Loudboxer-REMASTERED-WEB-2021-BABAS
2023-01-28 17:20:28TechnoSpeedy_J--G-Spot-REMASTERED-WEB-2021-BABAS
2023-01-28 17:20:18TechnoSpeedy_J--Live-REMASTERED-WEB-2021-BABAS
2023-01-28 17:20:01TechnoAdam_Beyer_x_Speedy_J--Collabs_100-REMASTERED-WEB-2021-BABAS
2023-01-28 17:19:42TechnoLiteron_x_Speedy_J--Collabs_200-REMASTERED-WEB-2021-BABAS
2023-01-28 17:19:12TechnoSpeedy_J--Ginger-REMASTERED-WEB-2021-BABAS
2023-01-28 16:25:35TechnoVA-Reactivate_Volume_1-The_Belgian_Techno_Anthems-(REACTLP1)-WEB-1991-BABAS
2023-01-28 16:24:58TechnoVA-Reactivate_6-Trance_Europa-(REACTCD15)-WEB-1992-BABAS
2023-01-28 16:23:43TechnoAcid_Jesus--Acid_Jesus-(KLANGCD1)-WEB-1993-BABAS_INT
2023-01-28 16:21:13TechnoVA-React_Test_One-(REACTCD31)-WEB-1993-BABAS_INT
2023-01-28 16:14:58TechnoJeff_Mills--Live_At_The_Liquid_Room-Tokyo-(REACTCD77)-WEB-1996-BABAS_INT
2023-01-28 16:13:45TechnoVA-True_People_The_Detroit_Techno_Album-(REACTCD71)-WEB-1996-BABAS_INT
2023-01-28 15:22:11TechnoRobin_Futaki--Traffic-(CBL002)-WEB-2019-YALLA
2023-01-28 15:02:23Techno1397Christian_Wunsch-Black_Sun-(TSU053LP)-WEB-2023-B2R
2023-01-28 08:14:58Techno725Martyn_Hare_-_Untitled-(EMETIC001)-Vinyl-2003-TN_ACID
2023-01-28 08:14:41Techno823Martyn_Hare-Emetic_III-(Emetic_03)-Vinyl-2003-MTC
2023-01-28 08:14:25Techno729Martyn_Hare--Emetic_VI_(EMETIC006)-VINYL-2004-CMC
2023-01-28 08:14:10Techno856Andrea-Remade-(IT037)-WEB-2018-AGITB
2023-01-28 08:13:53Techno732Martyn_Hare--Emetic_V_(EMETIC005)-VINYL-2004-CMC
2023-01-28 07:53:52Techno855Sina_XX--Body_To_Body_II_Paris-Berlin-(BODYTOBODY002)-WEB-2023-BABAS
2023-01-28 07:42:57TechnoRoughlung--Untitled-(CT06)-WEB-2014-BABAS
2023-01-28 07:00:01Techno852Orlando_Voorn--Savage_Routine_EP-(MAG197)-WEB-2022-BABAS
2023-01-28 07:00:01TechnoAlter_Ego--Soulfree__Lycra_(Luke_Slater_Remixes)-(AER027)-WEB-2016-BABAS
2023-01-28 07:00:01TechnoAlter_Ego--Gate_23_(Lost_On_Arrival__)-(KLANG99)-WEB-2005-BABAS
2023-01-28 07:00:01TechnoAlter_Ego--The_Fridge__Absolute-(KLANG75)-WEB-2003-BABAS
2023-01-28 05:10:21TechnoPete_Grove--Side_Effect-(WOOD1202)-WEB-1998-BABAS
2023-01-28 05:09:42TechnoGhoti--Iron_Lung-(WOOD1206)-WEB-1999-BABAS
2023-01-28 05:07:45TechnoAltitude--Elevation-(WOOD009)-WEB-2016-BABAS
2023-01-28 05:07:25TechnoHues--Water_Colour-(WOOD014)-WEB-2016-BABAS
2023-01-28 05:07:05TechnoGhoti--Mr_Sloth-(WOOD011)-WEB-2016-BABAS
2023-01-28 05:06:46TechnoDub_Gnostic--Eastern_Flares-(WOOD016)-WEB-2016-BABAS
2023-01-28 05:06:26TechnoGhoti--Live_At_Audiowerks-(WOOD012)-WEB-2016-BABAS
2023-01-28 05:05:47TechnoPete_Grove--Faded_Principle-(WOOD013)-WEB-2016-BABAS
2023-01-28 05:05:06TechnoSabrina_Dzugalo--From_The_Nest_EP-(WOOD022)-WEB-2017-BABAS
2023-01-28 02:10:54Techno977Solarythm_-_Agape_(NAVIGAREDIG004)-WEB-2023-TR
2023-01-28 02:07:04Techno1194VA-Tenebris_II-(DRKF41)-WEB-2023-BABAS
2023-01-28 01:55:04Techno526Echobeat-The_Invasion_of_Evil-(TOXIC494)-WEB-2023-PTC
2023-01-28 01:52:56Techno525Wolk-Exposed-(DBR025)-WEB-2023-PTC
2023-01-28 01:36:57Techno759Ferdinando_Daneri-Electric-(LJR104)-WEB-2023-PTC
2023-01-28 01:35:17Techno643Yuka-Mahakali-(KV040)-WEB-2022-PTC
2023-01-28 01:34:26Techno860Olivier_Abbeloos_x_Analog_Devices--Acid-A-Gogo-(TRIP013)-WEB-2023-BABAS
2023-01-28 00:02:02TechnoAgony_Forces--The_Noir_Age-(LYCAON001)-WEB-2011-BABAS
2023-01-28 00:01:40TechnoAgony_Forces--Fear_Is_A_Prison-(LYCDG002)-WEB-2011-BABAS
2023-01-28 00:01:18TechnoAgony_Forces--Polar_Era-(LYCAON002)-WEB-2012-BABAS
2023-01-28 00:00:57TechnoAda_Kaleh--Introspectie-(ADAKALEHROMANIALIMITED001)-WEB-2014-BABAS
2023-01-27 23:12:25Techno961RemPhase-Lost_Desires_EP-GUEST11-WEB-2023-WAV
2023-01-27 23:04:17TechnoPlanetary_Assault_Systems--Arc_Angel-(OSTGUTLP23)-WEB-FLAC-2016-BABAS
2023-01-27 23:04:14Techno8391Thee_J_Johanz_Jim_Lok-Bombay_Spring_Rolls_EP-VINYL-FLAC-2018-FrB
2023-01-27 22:54:24Techno17178Lidvall-Mind_Conflict-STD271-WEB-2023-WAV
2023-01-27 21:08:29TechnoDave_Clarke-White_Noise_891-WEB-01-26-2023-CiN_INT
2023-01-27 20:21:05TechnoDanny_Avila_-_Mainstage_Techno_Radio_036-CABLE-01-26-2023-TALiON
2023-01-27 19:48:54Techno516Felix_Krocher-Ignition-WATN027-SINGLE-WEB-2023-WAV
2023-01-27 19:45:34TechnoDanny_Avila_-_Mainstage_Techno_Radio_035-CABLE-01-19-2023-TALiON
2023-01-27 19:17:08Techno6174Umek-Once_Again_EP-(1605286)-WEB-FLAC-2023-AOVF
2023-01-27 18:58:59Techno866Dan_Wild--Panic_Buying-(RCD014)-WEB-2023-BABAS
2023-01-27 17:33:58Techno7602psyched-Kralendijk-(2PSY002)-WEB-2023-PTC
2023-01-27 17:29:06Hardstyle44269VA_-_Hardstyle_Festival_Sounds_2023-2CD-2023-FMC
2023-01-27 17:16:32Techno426Unspecial--Der_Freund_I_(Deadbeats_Sands_of_Time_Dub)-(MILLIGRAMME006)-SINGLE-WEB-2023-YALLA_INT
2023-01-27 16:57:16Techno413Jens_Lissat-Money_and_Chicks-(STU201)-SINGLE-WEB-2023-PTC
2023-01-27 16:51:46Techno413Marco_Leckbert-Space_Fury-(AKR022)-SINGLE-WEB-2023-PTC
2023-01-27 16:45:31Techno564Mart_Hoogkamer-Ik_Ga_Zwemmen_(LNY_TNZ_En_Crude_Intentions_Remix)-NL-WEB-FLAC-2022-AOVF
2023-01-27 16:45:00Techno618Mart_Hoogkamer-Ik_Ga_Zwemmen_(LNY_TNZ_En_Crude_Intentions_Remix)-WEB-NL-2022-AOV
2023-01-27 16:16:32Techno542Mastik_Groove_And_Pierfrancesco_Grossi-Mother_Earth-(RR475)-SINGLE-WEB-FLAC-2023-AOVF
2023-01-27 12:53:29Techno676Alat-CH.3_Evolution_Of_Evil-(CHBLACK058)-WEB-FLAC-2023-AOVF
2023-01-27 11:26:55Techno512Ecstatic_-_Ecuador_(Ecstatic_Remix)-WEB-MX-2022-MARiBOR_INT
2023-01-27 11:02:23Techno514The_Rocketman_and_Belocca-Lunar_Eclipse-(RM026)-SINGLE-WEB-2023-AFO
2023-01-27 10:57:25Techno417The_Yellowheads_And_NoNameLeft-Sector_D-RBL476-SINGLE-WEB-2023-WAV
2023-01-27 10:07:46Techno853Marcal-Cyber_Dystopia-ENEMY039-WEB-2023-WAV
2023-01-27 09:30:04Techno628Arni-Flight-IAMTRED128-WEB-2023-WAV
2023-01-27 07:53:26Techno513Eli_Brown-Make_You_Freak-(DCX005)-SINGLE-WEB-2023-AFO_INT
2023-01-27 07:49:35Techno514Reinier_Zonneveld_and_D-Devils-Dance_With_The_Devil_(The_6th_Gate)_(Reinier_Zonneveld_Remix)-(FOA124)-SINGLE-WEB-2023-AFO_INT
2023-01-27 06:29:14Techno520Naptone_-_Story_Of_My_Life-(HUF194)-WEB-2023-MARiBOR_INT
2023-01-27 05:17:41Techno620Neika_-_RAVE32-(RAVE32)-WEB-2023
2023-01-27 05:17:25Techno14130Codigo_Vermelho_-_Runtime_Exception-WEB-2022
2023-01-27 05:17:05Techno12116Bruno_Wolf_-_Noise_Dealer-(IMMT011)-WEB-2022
2023-01-27 05:16:41Techno744Eric_Sneo_and_Virgil_Enzinger_-_Dynamic_Flow_EP-(PATRN_028)-WEB-2006
2023-01-27 04:42:07Techno415Felix_Kroecher-Ignition-(WATN027)-SINGLE-WEB-2023-PTC
2023-01-27 02:47:50Techno654Henriette_Ramirez-Amalthea_EP-(GPLUS082)-WEB-2023-PTC
2023-01-27 02:41:51Techno13146VA-Best_Of_2022-(AGILE139)-WEB-2023-PTC
2023-01-27 02:34:21Techno27334VA-Elektrax_Recordings_Best_of_2022-(ELEKCD026)-WEB-2023-PTC
2023-01-27 02:33:59Techno534David_Moleon-Toma_Ya-(TRA097)-WEB-2023-PTC
2023-01-27 02:25:54Techno15178VA-Timeless-(ANTLP012)-WEB-2023-PTC
2023-01-27 01:29:04Techno524Anteac-Glycerin-(SMASH075)-WEB-2023-PTC
2023-01-27 01:23:42TechnoAnastasia-Beste_Musik_Incl_Mama_Snake_and_Roll_Dan_Guestmixes-(Fritz)-CABLE-01-06-2023-TDMLiVE
2023-01-27 01:23:14TechnoAnastasia-Beste_Musik_Incl_Daria_Kolosova_Guestmix-(Fritz)-CABLE-12-30-2022-TDMLiVE
2023-01-27 01:14:54Techno752Andrea_(IT)-Space_Forma-(IT025)-WEB-2014-YOU
2023-01-27 01:14:37Techno852Andrea--Outlines-(IT028)-WEB-2015-SiBERiA
2023-01-27 01:14:21Techno1266VA-Mass_Manipulation-WEB-2017-LEV
2023-01-27 01:13:50Techno729DJ_Glenn_Vs_The_Voltage_Club-Wake_Up_For_The_Toxic_Beat-Vinyl-2002-SND
2023-01-27 01:00:23Techno758Annika_Wolfe-Saudade_EP-(SYNTHETIK003)-WEB-2023-PTC
2023-01-27 00:56:36Techno529Quaake-Psychosis__White_Rabbit-(FLR015)-WEB-2023-PTC
2023-01-27 00:54:01Techno751Blanka-Love_Letter-(CBR006)-WEB-2023-PTC
2023-01-27 00:49:15Techno641Sub.Vision_and_Sarica-Sodalite-(SIREC065)-WEB-2023-PTC
2023-01-26 23:59:44Techno531Donnie_Darko-Fuck_Likes-(MR041)-WEB-2023-PTC
2023-01-26 23:13:42Techno527Virgil_Enzinger--Move_Beyond_Thyratron-(CLR15)-WEB-2006-dh
2023-01-26 22:42:20Techno689Dave_Angel-Glide-(REKIDS215)-WEBFLAC-2023-PTC
2023-01-26 22:05:45Techno18551VA-Sektion_2-RC2-WEB-FLAC-2022-WAVED
2023-01-26 22:04:19Techno18534VA-Sektion_1-RC1-WEB-FLAC-2020-WAVED
2023-01-26 21:02:30Techno527Twins_Project-Paranoid-(DGR090)-WEB-2023-wAx
2023-01-26 20:05:57Hardstyle56Lexxy_Chainz_-_Secrets-(SSO008)-SINGLE-WEB-2023-FMC
2023-01-26 20:02:12Techno15177Wyndell_Long--Analog_Frustations-(MRDIGI297)-WEB-2023-BABAS
2023-01-26 20:00:10Hardstyle59Cold_Confusion_Feat_MC_Flo_-_No_Way_Out-(MINUS180)-SINGLE-WEB-2023-FMC
2023-01-26 19:38:45Techno748Sopik-RAVE34-(RAVE34)-WEB-2023-wAx
2023-01-26 19:24:37Techno518Saytek--IYNDUB01_(Live)-(RS2213)-SINGLE-WEB-2023-BABAS
2023-01-26 18:52:07Techno965Tremor--The_Serpent_Lay_Ahead_EP-(01366CAT4)-WEB-2023-BABAS
2023-01-26 18:43:18Techno633Silat_Beksi--FLEXIBLE_SHAPES-(SBM007)-WEB-2023-BABAS
2023-01-26 18:42:32Techno8177Amazingblaze-Cant_Stop_EP-(KNTXT019)-WEBFLAC-2023-PTC
2023-01-26 18:31:18Techno7135Filterheadz-Waveriders_EP-(TR449)-WEBFLAC-2023-PTC
2023-01-26 18:08:02Techno855Esteban_Miranda-Oppresso-CSMD139-WEB-2023-WAV
2023-01-26 17:37:03Techno418Mau_Bacarreza-Acid_Waves-(MOON027)-SINGLE-WEB-2023-PTC
2023-01-26 17:14:58Techno624Alat-CH.3_Evolution_of_Evil-(CHBLACK058)-WEB-2023-AFO
2023-01-26 17:09:42Techno632Melanie_Massa-Dizziness-(ALULA170)-WEB-2023-AFO_INT
2023-01-26 17:03:01Techno736Root_Noise-Pronounced_EP-ALLE194-WEB-2023-WAV
2023-01-26 16:59:54Techno742Flug-Altered_Existence_II-DCLTD29-WEB-2023-WAV
2023-01-26 16:58:55Techno634Johan_Vais-The_True_EP-REDECLR161-WEB-2023-WAV
2023-01-26 16:53:51Techno758Samuel_Bass_And_Dan_Horizon-Neuro-PTLMD030-WEB-2023-WAV
2023-01-26 16:52:36Techno862Venedetty-Several_Abductions-PTLMD029-WEB-2023-WAV
2023-01-26 16:50:26Techno630Cyraxx-Cursed_Bells-PTLMD031-WEB-2023-WAV
2023-01-26 16:37:06Techno624Wiccuwa-City_EP-ECLR390-WEB-2023-WAV
2023-01-26 16:00:31Techno514Withard_-_Restart_(Earsquaker_Remix)-(4260193021565)-WEB-2023-MARiBOR
2023-01-26 16:00:01Techno588Chris_Liebing-Love_Those_Who_Fight_With_Passion_And_Faith_EP-(CLR106)-WEBFLAC-2023-PTC
2023-01-26 15:35:24Techno639Giusepperino_and_Sapphire-Alien-(AMP128)-WEB-2023-PTC
2023-01-26 15:33:42Hardstyle510Coone_And_Robert_Falcon_-_All_Of_The_Lights-(DWX1344)-SINGLE-WEB-2023-FMC
2023-01-26 15:33:12Hardstyle58Avi8_-_LOST_And_FOUND-(GBE162)-SINGLE-WEB-2023-FMC
2023-01-26 15:33:06Techno853David_Mijatovic-Differential-SCSSN013-WEB-2023-WAV
2023-01-26 15:30:31Techno729Cristian_Varela-Xenobots_EP-BCE033-WEB-2023-WAV
2023-01-26 15:28:21Techno59Umbraid-Motocross-AGS005-SINGLE-WEB-2023-WAV
2023-01-26 15:27:00Techno743Chlar-Dance_Instructor_EP-NIX002-WEB-2023-WAV
2023-01-26 15:18:07Techno859VA-SRC004-WEB-2023-WAV
2023-01-26 15:17:12Techno632UMEK-Once_Again_EP-(1605286)-WEB-2023-AFO
2023-01-26 15:12:29Techno850INGRID-Ratio_EP-FLASH317N-WEB-2023-WAV
2023-01-26 15:09:31Techno631Osiris4-Rules_Of_Life-MODUB001-WEB-2023-WAV
2023-01-26 15:04:28Techno857Distant_Echoes-Ex_Dystopian_016-RTMT006-WEB-2023-WAV
2023-01-26 15:04:16Techno861Distant_Echoes-Ex_Dystopian_009-RTMT005-WEB-2023-WAV
2023-01-26 15:01:15Techno1286Alex_Dolby-Functional_Elements-SQZ03-WEB-2023-WAV
2023-01-26 14:56:38Techno1078VA-FDS_Season_4-EYDFDS04-WEB-2023-WAV
2023-01-26 14:55:41Techno1083VA-FDS_Season_3-EYDFDS03-WEB-2023-WAV
2023-01-26 14:45:27Techno36524VA-5_Years_Anniversary-(ELS055)-WEB-2023-BABAS
2023-01-26 14:40:19Techno536Zeus_Lopez_and_JLChaparro_and_Oliver-K-Think-(MSKD016)-WEB-2023-PTC
2023-01-26 14:40:16Techno531Denis_Rabbe-Future-(KIT134)-WEB-2023-PTC
2023-01-26 14:40:12Techno12118VA-HYS.K006.1-(HYSK006.1)-WEB-2023-PTC
2023-01-26 14:37:18Techno852Maccari-The_Clue-LBRT36-WEB-2023-WAV
2023-01-26 14:31:35Techno866PWCCA-Cell_Research-(COMBINE053)-WEB-2023-PTC
2023-01-26 14:31:19Techno637Klint-Knot_Theory-(MOL034D)-WEB-2023-PTC
2023-01-26 14:30:54Techno526Acor-Champion_Sound-(DRE452)-WEB-2023-PTC
2023-01-26 14:29:24Techno7160Boris_Brejcha-Club_Vibes_Part_06-(HHBER059)-WEBFLAC-2023-AFO
2023-01-26 14:28:54Techno755Boris_Brejcha-Club_Vibes_Part_06-(HHBER059)-WEB-2023-AFO_INT
2023-01-26 14:28:00Techno754WCYA-Undisputed_Attitude-(FLOAT065)-WEB-2023-PTC
2023-01-26 14:27:40Techno762Viels-Distorted_Reality_EP-(DREF046)-WEB-2023-PTC
2023-01-26 14:10:24Techno12102Berkel-Espressione_Massima-ANTR011-WEB-2023-WAV
2023-01-26 14:07:17Techno859Augusto_Taito-Rumour_Circuit-IA019D-WEB-2023-WAV
2023-01-26 14:04:57Techno9129Kirill_Torno-Mexperement-(SUPDUB432)-WEB-2023-PTC
2023-01-26 14:04:50Techno852Angioma-Lunacy-ROOM026-WEB-2023-WAV
2023-01-26 14:00:01Techno17392Rikhter-Doma-RIKA1-WEB-FLAC-2021-WAVED
2023-01-26 13:52:04Techno975VA-Series_8-ODD069-WEB-2023-WAV
2023-01-26 13:49:18Techno7128Coyu-Unbowed_EP-(SUARA469)-WEBFLAC-2023-AFO
2023-01-26 13:46:11Techno13123Vinicius_Honorio_And_Aske-Radio_Amazonz-MOD072-WEB-2023-WAV
2023-01-26 13:41:54Techno957The_Preventer-Avalanche-TRM245-WEB-2023-WAV
2023-01-26 13:40:15Techno853Rian_Wood-Hard_People-ETB082-WEB-2023-WAV
2023-01-26 13:40:12Techno13131VA-HYS.K006.2-(HYSK006.2)-WEB-2023-PTC
2023-01-26 13:37:32Techno13124VA-Composite_Edition-RKD003-WEB-2023-WAV
2023-01-26 13:34:09Techno20218DJ_Shufflemaster-EXP-(TRESOR167)-WEB-2023-PTC
2023-01-26 13:27:53Techno749Earwax_(IT)-Tar_11-(TAR011)-WEB-2023-PTC
2023-01-26 13:26:03Techno13118VA-Volume_II-FR022-WEB-2023-WAV
2023-01-26 13:16:56Techno14141VA-Hidden_Gems_Vol_1-NTND009-WEB-2023-WAV
2023-01-26 13:11:17Techno966A_Thousand_Details-Ashes_From_Changes_EP-ASR067-WEB-2023-WAV
2023-01-26 13:09:03Techno756Alexander_Johansson_and_Mattias_Fridell-Geometriska_Strukturer_EP-(BP067)-WEB-2023-PTC
2023-01-26 13:08:56Techno1078Lakej-Underlying_Mechanisms_EP-RECT008-WEB-2023-WAV
2023-01-26 13:06:58Techno527Landis_LaPace-Higher-(UNI244)-WEB-2023-PTC
2023-01-26 13:06:32Techno1064Raffaele_Attanasio-Quasar-MR009D-WEB-2023-WAV
2023-01-26 13:03:16Techno863Mesh_Convergence-Implicit_Traits_of_Art-(SNG033D)-WEB-2023-PTC
2023-01-26 13:03:06Techno635Deadwalkman-Work_Dat_Body-(GN166)-WEB-2023-PTC
2023-01-26 13:00:36Techno531Sleepy_and_Boo-Oval_EP-(TRANS224)-WEB-2023-PTC
2023-01-26 12:59:48Techno527SKiRRA-Invasion-(HYDRO148)-WEB-2023-PTC
2023-01-26 12:59:33Techno762Operator_(UK)-Carbon_Towers_EP-(SYMDIGI027)-WEB-2023-PTC
2023-01-26 12:58:47Techno647Andata-No_Photos_No_Exceptions-(SENSO096)-WEB-2023-PTC
2023-01-26 12:54:26Techno866Steve_Parker-X-2222_EP-(PRRUKBLK077)-WEB-2023-PTC
2023-01-26 12:54:21Techno528Marco_Miranda_and_Nico_Rivera-Cyborg-(VIV017)-WEB-2023-PTC
2023-01-26 12:54:06Techno872JSPR-Cyborg_Salsa-(TRUNCATEDGTL19)-WEB-2023-PTC
2023-01-26 12:54:00Techno530Horisone-Tarnax-(EXT049)-WEB-2023-PTC
2023-01-26 12:53:26Techno753Altinbas-Illumination-(TOKEN113D)-WEB-2023-PTC
2023-01-26 12:53:23Techno750Sigvard-Expressed_Heat-(RILIS015)-WEB-2023-PTC
2023-01-26 12:46:46Techno416Ramon_Tapia-P.A.R.T.Y.-(SAWH171)-SINGLE-WEB-2023-PTC
2023-01-26 12:46:16Techno737Pablo_Say-The_Club_Is_On_Fire_EP-(EI8HT036)-WEB-2023-PTC
2023-01-26 12:45:52Techno640Lean_As_Troy-Sicak_EP-(KP146)-WEB-2023-PTC
2023-01-26 12:42:35Hardstyle618Devin_Wild_-_No_Resistance-WEB-2023-SRG
2023-01-26 12:42:32Hardstyle616Gunz_For_Hire_-_No_Mercy_(Gunz_Bloody_Remix)-WEB-2023-SRG
2023-01-26 12:41:47Hardstyle615Degos_And_Re-Done_-_Bold-WEB-2023-SRG
2023-01-26 12:34:14Techno529Sinan_Celik-Nightmare-(RR477)-WEB-2023-PTC
2023-01-26 12:22:22Techno634Chris_Liebing-Love_Those_Who_Fight_with_Passion_and_Faith_EP-(CLR106)-WEB-2023-AFO
2023-01-26 12:14:02Techno629Tiga-There_Is_No_Distance_Between_Us-(TURBO219D)-WEB-2023-AFO
2023-01-26 11:37:53Techno532Melanie_Massa-Dizziness-(ALULA170)-WEB-2023-PTC
2023-01-26 11:32:13Techno526Tao_Andra-Quiet_Woman-(KKU075)-WEB-2023-PTC
2023-01-26 11:19:30Techno745Filterheadz-Waveriders_EP-(TR449)-WEB-2023-AFO
2023-01-26 11:18:41Techno514Rave_Trax_ft_MC_Finchy-Rock_The_Party-(TRICK063)-SINGLE-WEB-2023-AFO
2023-01-26 11:18:41Techno513Julien_Riess_and_CNTRBND-The_Coldest_Form-(ALAU125)-SINGLE-WEB-2023-AFO
2023-01-26 11:18:11Techno632Monococ-Mindhunter-(ALPAK056)-WEB-2023-AFO
2023-01-26 11:17:30Techno855Amazingblaze-Cant_Stop_EP-(KNTXT019)-WEB-2023-AFO
2023-01-26 11:17:06Techno513RSRRCT-Dastardly_Dance_Groove-(ALAU127)-SINGLE-WEB-2023-AFO
2023-01-26 11:14:19Techno739Coyu-Unbowed_EP-(SUARA469)-WEB-2023-AFO
2023-01-26 11:12:37Techno531Dave_Angel-Glide-(REKIDS215)-WEB-2023-PTC
2023-01-26 11:00:01Techno854Palma--Omega_EP-(01366CAT2)-WEB-2022-BABAS
2023-01-26 11:00:01Techno964Mikrotakt--Intent_EP-(01366CAT1)-WEB-2022-BABAS
2023-01-26 05:16:40Techno14128VA_-_Traxsource_Downside_-_X-Y-Secret_Selection_Chart-WEB-2023
2023-01-26 05:16:26Techno14145VA_-_Beatport_Bec_-_Phantasy_Chart-WEB-2023
2023-01-26 04:22:16Techno754Fgarciolo-Between_Chaos_and_Shape-(DF061)-WEB-2023-PTC
2023-01-26 04:15:37Techno644Steel_Grooves-Rave_Slave_E.P.-(RF052)-WEB-2023-PTC
2023-01-25 22:40:09TechnoDc11--Immersion-(CWR007)-WEB-2021-BABAS
2023-01-25 22:14:23Techno731Jeroen_Liebregts-Templates_for_Life-EP-2006-SND
2023-01-25 22:13:56Techno931Go_Hiyama_-_Realization_EP_(AAR020)-Vinyl-2006-DFM
2023-01-25 22:13:42Techno747Martyn_Hare-Emetic_XXVII-(EMETIC027)-WEB-2016-wAx
2023-01-25 22:13:26Techno750Monya-Emetic_XXI-EMETIC021-WEB-2015-PITY
2023-01-25 21:14:30Techno1197Goden-Underliner-SYNDIG005-WEB-2023-WAV
2023-01-25 20:04:26Techno413Geebone-Ball_So_Hard-(TAM153)-SINGLE-WEB-2023-wAx
2023-01-25 19:55:17Techno749MarAxe-Elements-(TTR00021)-WEB-2023-wAx
2023-01-25 16:57:33Hardstyle615The_Pitcher_Ft._MC_D_-_Born_To_Be_King-(IAH103)-WEB-2023-SRG
2023-01-25 16:57:24Hardstyle616Galactixx_-_Sun_Goes_Down-WEB-2023-SRG
2023-01-25 13:46:40Techno853Rita_Maomenos-Weapons_of_the_Weak-(DRSS573)-WEB-2023-PTC
2023-01-25 13:46:25Techno641Maax_Pain-New_Dawn-(AES058)-WEB-2023-PTC
2023-01-25 13:44:36Techno530Crossing_Avenue-KONSTRUKT_017-(KON017)-WEB-2023-PTC
2023-01-25 13:43:52Techno878Assimilated-The_Dark_Zone-(BAHN022EP)-WEB-2023-PTC
2023-01-25 12:42:31Techno514Black_Elektronika_and_Ivan_Monilia-Due_Toro-(RBD344)-SINGLE-WEB-2023-AFO
2023-01-25 06:31:20TechnoAnswer_Code_Request--Crack_City-(ACR202)-WEB-2013-BABAS
2023-01-25 06:30:57TechnoPoly_Sone--Exit_Flesh_EP-(FND003)-WEB-2020-BABAS
2023-01-25 06:30:36TechnoJoint_Minds--Commotion__Headerstuck-(FND001)-WEB-2020-BABAS
2023-01-25 06:05:34TechnoVA-Best_Of_Tontek_2010_Unreleased_and_Rewamped-(T2)-WEB-2011-BABAS
2023-01-25 06:05:13TechnoVA-Recombination_Sequence_1-Symbiosis-(HPX65)-WEB-2012-BABAS_INT
2023-01-25 06:04:50TechnoTony_Rohr--Archeology_Exc.3_(Mixed)-(HPX68)-SINGLE-WEB-2012-BABAS
2023-01-25 06:04:29TechnoTony_Demoet--Coming_On_Strong_The_Remixes-(TONTEK32)-WEB-2012-BABAS
2023-01-25 06:04:08TechnoTeo_Brothers--Sinkholes-(TONTEK35)-WEB-2013-BABAS
2023-01-25 06:01:57TechnoRevolt--Aviator-(PRCPTNWHITE002)-WEB-2015-BABAS
2023-01-25 05:31:08TechnoSarell--This_Is_The_Sound_EP-(FND008)-WEB-2021-BABAS
2023-01-25 05:14:52Techno14139VA_-_Traxsource_Oliver_Knight_-_Get_Weak_Chart-WEB-2023
2023-01-25 05:14:33Techno24283VA_-_Beatport_Waff_-_Playlist_Of_The_Week_Chart-WEB-2023
2023-01-25 05:14:05Techno14153VA_-_Beatport_Peetu_S_-_Missing_Tracks_Chart-WEB-2023
2023-01-25 04:57:24TechnoMr_James_Barth--Remastered_(1992-1999)-(MOTTO0)-REMASTERED-WEB-FLAC-2019-BABAS
2023-01-25 04:56:03TechnoTony_Demoet--10_Years_Of_Tontek-(TT10Y)-WEB-2018-BABAS
2023-01-25 04:53:21TechnoMr_James_Barth--Remastered_(1992-1999)-(MOTTO0)-REMASTERED-WEB-2019-BABAS
2023-01-25 04:44:34TechnoPolyphase--Just_A_Slave-(PRCPTNATD008)-WEB-2021-BABAS
2023-01-25 04:43:54TechnoGerry_Menu--Jetser-(PRCPTN079)-WEB-2021-BABAS
2023-01-25 04:25:24TechnoMid_Wooder--Satellite_EP-(EXOD022)-WEB-2019-BABAS
2023-01-25 04:25:02TechnoPulso--Temor_Al_Verbo_EP-(EXOD021)-WEB-2019-BABAS
2023-01-25 04:24:41TechnoSpace--Utan_Ande_EP-(EXOD019)-WEB-2019-BABAS
2023-01-25 04:24:19TechnoP.G.Alvar--Nube_Di_Oort_EP-(EXOD030)-WEB-2019-BABAS
2023-01-25 04:23:57Techno9192--Android_EP-(EXOD026)-WEB-2019-BABAS
2023-01-25 04:23:36TechnoStanislav_Lavskyy--Fear_EP-(EXOD020)-WEB-2019-BABAS
2023-01-25 04:23:13TechnoOlexii--Sometimes_Were_Too_Strong_EP-(EXOD025)-WEB-2019-BABAS
2023-01-25 04:22:53TechnoIindustrie_Du_Silence--Xanadu_EP-(EXOD039)-WEB-2020-BABAS
2023-01-25 04:22:31TechnoP-ben--Gravity_Time_EP-(EXOD040)-WEB-2020-BABAS
2023-01-25 04:22:09TechnoLinde--Milky_Way_EP-(EXOD042)-WEB-2020-BABAS
2023-01-25 04:21:48TechnoDistort_X--Deep_Signal_EP-(EXOD033)-WEB-2020-BABAS
2023-01-25 04:21:25TechnoJavadeep--Lost_In_Space_EP-(EXOD038)-WEB-2020-BABAS
2023-01-25 04:21:04TechnoEL-Y--Chronos_EP-(EXOD034)-WEB-2020-BABAS
2023-01-25 04:20:43TechnoAudioGamer--The_Title_EP-(EXOD041)-WEB-2020-BABAS
2023-01-25 04:20:22TechnoDan_Grade--Celestial_Emissary_EP-(EXOD049)-WEB-2021-BABAS
2023-01-25 04:19:59TechnoVA-Mastoid_Kollektive-PINK-(MK013)-WEB-2021-BABAS
2023-01-25 04:19:42Techno750Feros_Rec--Harmonis_Mundi_EP-(EXOD051)-WEB-2022-BABAS
2023-01-25 04:19:37TechnoSQNCR69--Fly_8363_EP-(EXOD044)-WEB-2021-BABAS
2023-01-25 04:19:15TechnoSolaxid--Plasma_EP-(EXOD045)-WEB-2021-BABAS
2023-01-25 04:18:54TechnoSolaxid--Solar_Storm_EP-(EXOD048)-WEB-2021-BABAS
2023-01-25 04:18:33Techno59Mark_Broom--Real_Bad-(MK027)-SINGLE-WEB-2022-BABAS
2023-01-25 03:51:27Techno752John_Plaza--EON-(HIPNOTISMOSONORO001)-WEB-2022-BABAS
2023-01-25 03:20:38Techno40503VA-Mastoid_Kollektive-PINK_II-(MK026)-WEB-2022-BABAS
2023-01-25 02:31:24Techno522Marie_Ann_Hedonia-Temporal_Dysmorphia-(DEL013)-WEB-2023-PTC
2023-01-25 02:31:01Techno757Imperial_Deep-Chord_Of_Excitement-(HRD029)-WEB-2023-PTC
2023-01-25 02:20:03Techno515Berlin_Audio_Box-Hyper_Deep_EP-(SK162)-WEB-2023-KiEF
2023-01-25 01:54:40Techno415Surgeon-Oak_Bank-(TRESOR351S1)-SINGLE-WEB-2023-PTC
2023-01-25 01:54:01Techno752Das-Rituals-(LPR020)-WEB-2023-PTC
2023-01-24 21:25:26Techno1193I_Decided--Pugilism-(OSC007)-WEB-2023-BABAS
2023-01-24 20:53:26Techno13320Umwelt-Dead_Eyes_Society-MONNOM029-WEB-FLAC-2022-WAVED
2023-01-24 20:51:25Techno14427Dax_J-Utopian_Surrealism-MONNOM026-WEB-FLAC-2021-WAVED
2023-01-24 20:39:29Techno629Kind_of_People--Mod_EP-(IK015)-WEB-2023-BABAS
2023-01-24 20:30:44Techno856CORE_x_Einerlei--Pearls_Of_Ras_Dashen-(NOR027)-WEB-2023-BABAS
2023-01-24 16:37:55Hardstyle613Bright_Visions_-_Silent_And_Grey-(NEXT139PRO)-WEB-2023-SRG
2023-01-24 14:04:02Techno853O.B.I-Radical_Experience_EP-GFR085-WEB-2023-WAV
2023-01-24 13:49:19Techno417Maxime_Dangles-Revolte_(Vocal_Mix)-(LG01S2)-SINGLE-WEB-2023-PTC
2023-01-24 12:35:34Techno530Lozaanso-Disorder-(RBL477)-WEB-2023-PTC
2023-01-24 11:14:29Techno929Bas_Mooy-Metal_Coffee_Death_Ep-(AAR024)-Vinyl-2007-PULSE
2023-01-24 10:20:34TechnoSeptimo_&_Etawdex_-_Good_Love-WEB-2023
2023-01-24 10:15:28Techno931Paul_Mac-Shot_Through-(AAR023)-Vinyl-2007-MTC
2023-01-24 10:14:02Techno924Glenn_Wilson_-_Class_of_96_EP_(AAR021)-Vinyl-2006-DFM
2023-01-24 05:16:20Techno13140VA_-_Traxsource_Freedomb_-_Welcome_To_My_Journey_January_Chart-WEB-2023
2023-01-24 05:16:01Techno24339VA_-_Beatport_Warm-Up_Essentials_2023_Minimal_Deep_Tech-WEB-2023
2023-01-24 05:15:32Techno14135VA_-_Beatport_Joe_Vanditti_-_January_Chart-WEB-2023
2023-01-24 02:08:12Techno1094Arcad-Liquid_Dreams-(TOXIC493)-WEB-2023-PTC
2023-01-24 00:54:54Techno750Piotr_Figiel_and_Marboc-CTRL018-(CTRL018)-WEB-2023-PTC
2023-01-24 00:40:35Techno531Graham_Dunn-Music-(LJR098)-WEB-2023-PTC
2023-01-23 20:31:02TechnoUltrahigh--We_Call_It_Ultrahigh-(FIM054)-WEB-FLAC-1994-BABAS
2023-01-23 20:03:20Technoi_o-Death_by_Techno-(MAU50244)-WEBFLAC-2019-AFO
2023-01-23 19:51:39TechnoDJ_Misjah_and_DJ_Tim-Access_(io_Remix)-(ARMAS1715)-SINGLE-WEBFLAC-2020-AFO
2023-01-23 18:12:22Techno856Darksider-Wham_Bam_EP-CHR280-WEB-2023-WAV
2023-01-23 17:27:05Techno844Scalameriya-Nullification_EP-V1001V-WEB-2023-WAV
2023-01-23 16:23:52Techno858VA-Cyborg_Implantation_Section_65_EP-(GP095)-WEB-2023-BABAS
2023-01-23 16:23:30Techno12101Serti--Extrovert_from_Outside_Introvert_Inside-(FIED001)-WEB-2023-BABAS
2023-01-23 13:41:40Techno13156Marcel_Ruew-Unitary_Of_The_Lost-(DRSS502)-WEB-2023-PTC
2023-01-23 12:58:32Techno28341VA-TWR_ESSENTIAL_2022-(TWR104)-WEB-2023-SUNBEAM
2023-01-23 12:05:01Techno515Alex_Megane_x_Mindblast_-_Heaven_Is_A_Place_On_Earth_(Hardstyle_Mix)-(MMRD1600)-WEB-2023-MARiBOR_INT
2023-01-23 11:22:10Techno9147Submersion-Enfold-(SPS2256)-WEB-2022-AGITB_INT
2023-01-23 11:20:17Techno859Z1B2-QRNT-(TDS03)-WEB-2023-AGITB
2023-01-23 11:19:50Techno631Coaxer-Catwalk-(LG214)-WEB-2022-AGITB
2023-01-23 11:18:46Techno736Andre_Motz-Fractals-(DIMBI059)-WEB-2023-AGITB
2023-01-23 07:29:43Techno12106VA-Industrial_Techno_Vol._14-(WWR268)-WEB-2023-SUNBEAM
2023-01-23 07:15:13Techno25194Terrence_Dixon--12_000_Miles_Of_Twilight-(OUTA006)-WEB-2017-BABAS_INT
2023-01-23 07:14:33Techno13170Cybered-Acid_Box-WEB-2014-XTC_iNT
2023-01-23 07:01:47Techno19202VA-Devil__Underground_Art_Techno_Set-(SLT308)-WEB-2023-SUNBEAM
2023-01-23 06:58:53Techno923Joao_Milibie-Nightmares-(197547870477)-WEB-2023-SUNBEAM
2023-01-23 06:55:59Techno741C.Forr-Alarm_Noir-(197508958879)-WEB-2023-SUNBEAM
2023-01-23 06:55:20Techno1176Lethal_Disk-Procrastination-(197544941194)-WEB-2023-SUNBEAM
2023-01-23 06:53:46Techno994Sonic_Jay-Universal_Religion-(TGNR129)-WEB-2023-SUNBEAM
2023-01-23 06:51:24Techno851Nasdrowie-Versus-(NBR028)-WEB-2023-SUNBEAM
2023-01-23 05:23:18Techno24279VA_-_Beatport_Warm-Up_Essentials_2023_Hard_Techno-WEB-2023
2023-01-23 05:22:03Techno24313VA_-_Beatport_PigandDan_-_Nye_Bangers_Chart-WEB-2023
2023-01-23 02:26:23Techno18219VA-Translucent_Best_of_2022-(TRANSCD17)-WEB-2023-PTC
2023-01-23 02:19:52Techno761Kirilovsky-Broad_Line_EP-(CORB049)-WEB-2023-PTC
2023-01-23 00:27:18Techno973Luca_Maniaci-23-MINDGAMES059-WEB-2023-WAV
2023-01-22 22:00:01Techno29374VA-Crosstrain_Trax_021-(HOTQCRTT021)-WEB-2023-SUNBEAM
2023-01-22 21:21:50TechnoVA-EP1-(INNER005)-WEB-2013-BABAS
2023-01-22 21:18:38TechnoVA-EP2-(INNER006)-WEB-2013-BABAS
2023-01-22 21:17:36TechnoGrey_Branches--Lower_Bounds-(INNER008)-WEB-2014-BABAS
2023-01-22 21:13:28TechnoAngus_Tarnawsky--Pitched-(INNER007)-WEB-2014-BABAS
2023-01-22 21:06:09TechnoVA-Orlando_Voorn-Classics-Van_Czar_Remixes-(BB2016175X)-WEB-2016-BABAS
2023-01-22 21:05:10TechnoGrey_Branches--Neuroclaps_LP-(INNERLP01)-WEB-2017-BABAS
2023-01-22 20:31:23TechnoWalker_x_Kennedy--3_Stacked_Layers_From_Macro_To_Meta-(INNER004)-WEB-2012-BABAS
2023-01-22 19:35:49Techno852VA-KT_VA-004-(KTVA004)-WEB-2023-BABAS
2023-01-22 17:00:45Techno15425Moteka_And_Truant.J-Permutation_Paradox-SKRPT73-WEB-FLAC-2022-WAVED
2023-01-22 16:31:09Techno666D-Sturb_And_Act_Of_Rage_And_Nolz-Magnetism-(Q320PRO)-WEB-FLAC-2023-AOVF
2023-01-22 16:17:22Techno666Loudar-Little_Susie-(NEXT138)-WEB-FLAC-2023-AOVF
2023-01-22 14:51:17Techno511Volster-EXPOSITION_F-SINGLE-WEB-2023-B2R
2023-01-22 14:49:31Techno623Sleeparchive-Untitled-WEB-2023-B2R
2023-01-22 14:41:25Techno632Robag_Wruhme-Speicher_123-(KOMEX123)-VINYL-2022-EMP
2023-01-22 14:33:49Techno849Jackpot-Supernova-(INSECTORAMA149)-WEB-2023-AGITB_INT
2023-01-22 14:33:30Techno973Hattori_Hanzo-Function_Over_Fancy-MM003-WEB-2023-WAV
2023-01-22 14:25:01Techno849Justin_Schumacher-Rough_Estimate_EP-OES034-WEB-2023-WAV
2023-01-22 14:10:46Techno15157CucaRafa-Epifania-(DREA011)-WEB-2023-PTC
2023-01-22 14:05:33Techno989Unspent-Threat_Log-(DRSS496)-WEB-2023-PTC